Weather History for KGRB - June, 2013

Change the Weather History Date:

Saturday, June 29, 2013

  Actual Average Record
Temperature  
Mean Temperature 67 °F 68 °F  
Max Temperature 74 °F 79 °F 100 °F (1931)
Min Temperature 60 °F 58 °F 43 °F (1988)
Degree Days  
Heating Degree Days 0 1  
Month to date heating degree days 72 90  
Since 1 June heating degree days 72 90  
Since 1 July heating degree days 7714 7953  
Cooling Degree Days 2 4  
Month to date cooling degree days 103 78  
Year to date cooling degree days 141 96  
Since 1 June cooling degree days 103 78  
Growing Degree Days 17 (Base 50)    
Moisture  
Dew Point 58 °F    
Average Humidity 74    
Maximum Humidity 93    
Minimum Humidity 55    
Precipitation  
Precipitation 0.02 in 0.13 in 2.21 in (1897)
Month to date precipitation 3.82 3.76  
Year to date precipitation 17.59 13.41  
Snow  
Snow 0.00 in 0.00 in 0.00 in ()
Month to date snowfall 0.0 0.0  
Since 1 June snowfall 0.0 0.0  
Since 1 July snowfall 74.2 51.4  
Snow Depth 0.00 in    
Sea Level Pressure  
Sea Level Pressure 29.73 in    
Wind  
Wind Speed 12 mph (NNE)    
Max Wind Speed 22 mph    
Max Gust Speed 29 mph    
Visibility 9 miles    
Events Rain    
T = Trace of Precipitation, MM = Missing Value Source: NWS Daily Summary

Daily Weather History Graph

Daily Weather History Graph

Search for Another Location

Airport or City:

Trip Planner

Search our weather history database for the weather conditions in past years. The results will help you decide how hot, cold, wet, or windy it might be!

Date:

Astronomy

Jun. 29, 2013 Rise Set
Actual Time 5:10 AM CDT 8:41 PM CDT
Civil Twilight 4:34 AM CDT 9:17 PM CDT
Nautical Twilight 3:45 AM CDT 10:06 PM CDT
Astronomical Twilight 2:43 AM CDT 11:08 PM CDT
Moon No Moon Rise 12:40 PM CDT (6/29)
Length of Visible Light 16h 43m
Length of Day
15h 30m
Waning Gibbous, 55% of the Moon is Illuminated
Jun 29
Waning Gibbous
Jun 29
Last Quarter
Jul 8
New
Jul 15
First Quarter
Jul 22
Full

Hourly Weather History & Observations

Time (CDT) Temp. Dew Point Humidity Pressure Visibility Wind Dir Wind Speed Gust Speed Precip Events Conditions
12:53 AM 64.0 °F 61.0 °F 90% 29.66 in 8.0 mi North 9.2 mph - 0.00 in   Overcast
1:12 AM 64.0 °F 61.0 °F 90% 29.66 in 8.0 mi North 10.4 mph - N/A   Overcast
1:53 AM 63.0 °F 61.0 °F 93% 29.65 in 6.0 mi North 8.1 mph - 0.00 in Rain Light Rain
2:41 AM 63.0 °F 61.0 °F 93% 29.66 in 7.0 mi North 12.7 mph - 0.00 in   Overcast
2:53 AM 63.0 °F 61.0 °F 93% 29.65 in 7.0 mi North 11.5 mph - 0.00 in   Overcast
3:53 AM 63.0 °F 60.1 °F 90% 29.66 in 8.0 mi North 11.5 mph - N/A   Overcast
4:53 AM 62.1 °F 60.1 °F 93% 29.67 in 10.0 mi North 9.2 mph - N/A   Overcast
5:51 AM 62.6 °F 59.0 °F 88% 29.69 in 9.0 mi North 9.2 mph - N/A   Overcast
5:53 AM 62.1 °F 59.0 °F 90% 29.69 in 9.0 mi North 9.2 mph - N/A   Overcast
6:32 AM 62.1 °F 59.0 °F 90% 29.70 in 2.5 mi North 10.4 mph - 0.01 in Rain Light Rain
6:39 AM 62.1 °F 59.0 °F 90% 29.70 in 4.0 mi North 10.4 mph - 0.02 in Rain Light Rain
6:53 AM 62.1 °F 59.0 °F 90% 29.70 in 10.0 mi North 9.2 mph - 0.02 in Rain Light Rain
7:08 AM 62.1 °F 59.0 °F 90% 29.70 in 10.0 mi North 12.7 mph - 0.00 in   Overcast
7:23 AM 62.1 °F 59.0 °F 90% 29.70 in 10.0 mi North 10.4 mph - 0.00 in   Overcast
7:42 AM 62.1 °F 59.0 °F 90% 29.70 in 10.0 mi North 11.5 mph - 0.00 in   Overcast
7:53 AM 62.1 °F 59.0 °F 90% 29.70 in 10.0 mi North 12.7 mph - 0.00 in   Overcast
8:53 AM 62.1 °F 59.0 °F 90% 29.72 in 9.0 mi North 12.7 mph - N/A   Overcast
9:53 AM 64.9 °F 59.0 °F 81% 29.73 in 10.0 mi North 12.7 mph - N/A   Overcast
10:53 AM 66.9 °F 59.0 °F 76% 29.73 in 10.0 mi NNE 10.4 mph - N/A   Overcast
11:53 AM 69.1 °F 59.0 °F 70% 29.75 in 10.0 mi North 9.2 mph - N/A   Overcast
12:53 PM 72.0 °F 55.9 °F 57% 29.74 in 10.0 mi NE 16.1 mph 24.2 mph N/A   Overcast
1:53 PM 71.1 °F 59.0 °F 66% 29.75 in 10.0 mi NNE 8.1 mph - N/A   Overcast
2:53 PM 69.1 °F 61.0 °F 75% 29.75 in 10.0 mi NE 10.4 mph - N/A   Overcast
3:53 PM 72.0 °F 60.1 °F 66% 29.75 in 10.0 mi NNE 11.5 mph - N/A   Mostly Cloudy
4:53 PM 73.0 °F 57.9 °F 59% 29.76 in 10.0 mi NE 12.7 mph - N/A   Mostly Cloudy
5:53 PM 72.0 °F 57.9 °F 61% 29.78 in 10.0 mi NE 16.1 mph - N/A   Mostly Cloudy
6:53 PM 70.0 °F 55.9 °F 61% 29.80 in 10.0 mi NE 15.0 mph 26.5 mph N/A   Overcast
7:53 PM 69.1 °F 55.9 °F 63% 29.82 in 10.0 mi NE 16.1 mph - N/A   Overcast
8:53 PM 68.0 °F 55.9 °F 65% 29.83 in 10.0 mi NNE 10.4 mph - N/A   Overcast
9:53 PM 68.0 °F 52.0 °F 56% 29.86 in 10.0 mi NNE 12.7 mph - N/A   Overcast
10:53 PM 64.9 °F 50.0 °F 58% 29.87 in 10.0 mi North 15.0 mph - N/A   Clear
11:53 PM 62.1 °F 48.9 °F 62% 29.87 in 10.0 mi North 10.4 mph - N/A   Clear